,,,PA_Meas_PMT16A,,PR_Meas_QMR101_102,,RH_Meas_QMH101,,SR_Meas_QMS101,,TA_Meas_QMH101,,GenWind,,GenWind,
date,time,status,PA,status,PR,status,RH,status,SR,status,TA,status,DirAvg,status,SpdAvg,
2009-09-10, 00:00:04,VALID,1010.11,VALID,0,VALID,97.0835,VALID,0,VALID,24.1617,VALID,321,VALID,0.404687,
2009-09-10, 00:01:04,VALID,1010.11,VALID,0,VALID,97.0682,VALID,0,VALID,24.1422,VALID,321,VALID,0.247266,
2009-09-10, 00:02:04,VALID,1010.11,VALID,0,VALID,97.0758,VALID,0,VALID,24.1422,VALID,321,VALID,0.381641,
2009-09-10, 00:03:04,VALID,1010.11,VALID,0,VALID,97.0835,VALID,0,VALID,24.1635,VALID,342,VALID,0.490234,
2009-09-10, 00:04:04,VALID,1010.12,VALID,0,VALID,97.0758,VALID,0,VALID,24.1422,VALID,8,VALID,0.463672,
2009-09-10, 00:05:04,VALID,1010.12,VALID,0,VALID,97.0758,VALID,0,VALID,24.1422,VALID,26,VALID,0.4625,
2009-09-10, 00:06:04,VALID,1010.13,VALID,0,VALID,97.0758,VALID,0,VALID,24.1422,VALID,26,VALID,0.571484,
2009-09-10, 00:07:04,VALID,1010.15,VALID,0,VALID,97.0835,VALID,0.105969,VALID,24.1404,VALID,25,VALID,0.409766,
2009-09-10, 00:08:04,VALID,1010.11,VALID,0,VALID,97.0987,VALID,0.211938,VALID,24.1404,VALID,22,VALID,0.314453,
2009-09-10, 00:09:04,VALID,1010.1,VALID,0,VALID,97.0987,VALID,0.105969,VALID,24.1209,VALID,22,VALID,0.352734,
2009-09-10, 00:10:04,VALID,1010.1,VALID,0,VALID,97.0987,VALID,0.105969,VALID,24.1209,VALID,18,VALID,0.498047,
2009-09-10, 00:11:04,VALID,1010.09,VALID,0,VALID,97.0911,VALID,0.105969,VALID,24.1422,VALID,17,VALID,0.43125,
2009-09-10, 00:12:04,VALID,1010.1,VALID,0,VALID,97.1063,VALID,0.105969,VALID,24.1209,VALID,16,VALID,0.615234,
2009-09-10, 00:13:04,VALID,1010.09,VALID,0,VALID,97.0911,VALID,0.105969,VALID,24.1209,VALID,10,VALID,0.661328,
2009-09-10, 00:14:04,VALID,1010.06,VALID,0,VALID,97.0911,VALID,0.105969,VALID,24.1014,VALID,356,VALID,0.660156,
2009-09-10, 00:15:04,VALID,1010.06,VALID,0,VALID,97.0835,VALID,0.105969,VALID,24.1032,VALID,29,VALID,0.503516,
2009-09-10, 00:16:04,VALID,1010.06,VALID,0,VALID,97.114,VALID,0.105969,VALID,24.0624,VALID,15,VALID,0.718359,
2009-09-10, 00:17:04,VALID,1010.04,VALID,0,VALID,97.0911,VALID,0.105969,VALID,24.0429,VALID,4,VALID,0.483203,
2009-09-10, 00:18:04,VALID,1010.04,VALID,0,VALID,97.1063,VALID,0.105969,VALID,24.0643,VALID,4,VALID,0.358984,
2009-09-10, 00:19:04,VALID,1010,VALID,0,VALID,97.1216,VALID,0.105969,VALID,24.0448,VALID,4,VALID,0.428906,
2009-09-10, 00:20:04,VALID,1009.98,VALID,0,VALID,97.0987,VALID,0,VALID,24.0429,VALID,15,VALID,0.717188,
2009-09-10, 00:21:04,VALID,1009.97,VALID,0,VALID,97.1063,VALID,0.105969,VALID,24.0235,VALID,22,VALID,0.0960938,
2009-09-10, 00:22:04,VALID,1009.97,VALID,0,VALID,97.1063,VALID,0.105969,VALID,24.0429,VALID,33,VALID,0.458594,
2009-09-10, 00:23:04,VALID,1009.95,VALID,0,VALID,97.1292,VALID,0.105969,VALID,24.0643,VALID,360,VALID,0.340625,
2009-09-10, 00:24:04,VALID,1009.97,VALID,0,VALID,97.1216,VALID,0.105969,VALID,24.0429,VALID,346,VALID,0.607031,
2009-09-10, 00:25:04,VALID,1009.97,VALID,0,VALID,97.0987,VALID,0.105969,VALID,24.0624,VALID,21,VALID,0.265625,
2009-09-10, 00:26:04,VALID,1009.99,VALID,0,VALID,97.114,VALID,0.105969,VALID,24.0624,VALID,355,VALID,0.3375,
2009-09-10, 00:27:04,VALID,1010.03,VALID,0,VALID,97.114,VALID,0.105969,VALID,24.0837,VALID,355,VALID,0.369141,
2009-09-10, 00:28:04,VALID,1010.01,VALID,0,VALID,97.114,VALID,0.105969,VALID,24.0819,VALID,339,VALID,0.528906,
2009-09-10, 00:29:04,VALID,1010.04,VALID,0,VALID,97.1063,VALID,0.105969,VALID,24.1014,VALID,19,VALID,0.391797,
2009-09-10, 00:30:04,VALID,1010.01,VALID,0,VALID,97.0987,VALID,0.105969,VALID,24.1209,VALID,54,VALID,0.323438,
2009-09-10, 00:31:04,VALID,1009.99,VALID,0,VALID,97.1216,VALID,0.105969,VALID,24.1014,VALID,46,VALID,0.60625,
2009-09-10, 00:32:04,VALID,1009.99,VALID,0,VALID,97.1216,VALID,0.105969,VALID,24.1014,VALID,31,VALID,0.388281,
2009-09-10, 00:33:04,VALID,1009.95,VALID,0,VALID,97.0987,VALID,0.105969,VALID,24.1014,VALID,31,VALID,0.544531,
2009-09-10, 00:34:05,VALID,1009.92,VALID,0,VALID,97.114,VALID,0.105969,VALID,24.0624,VALID,31,VALID,0.30625,
2009-09-10, 00:35:05,VALID,1009.88,VALID,0,VALID,97.0911,VALID,0.105969,VALID,24.0429,VALID,31,VALID,0.705078,
2009-09-10, 00:36:05,VALID,1009.86,VALID,0,VALID,97.0835,VALID,0.105969,VALID,24.0429,VALID,31,VALID,0.509375,
2009-09-10, 00:37:05,VALID,1009.85,VALID,0,VALID,97.053,VALID,0.105969,VALID,24.0429,VALID,356,VALID,0.795313,
2009-09-10, 00:38:05,VALID,1009.81,VALID,0,VALID,97.0758,VALID,0.105969,VALID,24.0624,VALID,348,VALID,0.581641,
2009-09-10, 00:39:05,VALID,1009.79,VALID,0,VALID,97.0606,VALID,0.105969,VALID,24.0624,VALID,325,VALID,0.157422,
2009-09-10, 00:40:05,VALID,1009.78,VALID,0,VALID,97.053,VALID,0.105969,VALID,24.0429,VALID,325,VALID,0.0359375,
2009-09-10, 00:41:05,VALID,1009.77,VALID,0,VALID,97.0682,VALID,0,VALID,24.0429,VALID,325,VALID,0,
2009-09-10, 00:42:05,VALID,1009.76,VALID,0,VALID,97.0453,VALID,0.105969,VALID,24.0624,VALID,325,VALID,0,
2009-09-10, 00:43:05,VALID,1009.72,VALID,0,VALID,97.0453,VALID,0.105969,VALID,24.0235,VALID,325,VALID,0,
2009-09-10, 00:44:05,VALID,1009.72,VALID,0,VALID,97.053,VALID,0.105969,VALID,24.0235,VALID,325,VALID,0,
2009-09-10, 00:45:05,VALID,1009.69,VALID,0,VALID,97.053,VALID,0.105969,VALID,24.004,VALID,325,VALID,0,
2009-09-10, 00:46:05,VALID,1009.67,VALID,0,VALID,97.0453,VALID,0.105969,VALID,24.004,VALID,325,VALID,0.136328,
2009-09-10, 00:47:05,VALID,1009.66,VALID,0,VALID,97.0301,VALID,0.105969,VALID,24.0235,VALID,37,VALID,0.425,
2009-09-10, 00:48:05,VALID,1009.67,VALID,0,VALID,97.0606,VALID,0.105969,VALID,24.004,VALID,37,VALID,0,
2009-09-10, 00:49:05,VALID,1009.68,VALID,0,VALID,97.0453,VALID,0.105969,VALID,24.004,VALID,37,VALID,0,
2009-09-10, 00:50:05,VALID,1009.66,VALID,0,VALID,97.0225,VALID,0,VALID,24.004,VALID,37,VALID,0,
2009-09-10, 00:51:05,VALID,1009.68,VALID,0,VALID,97.0453,VALID,0.105969,VALID,24.004,VALID,37,VALID,0,
2009-09-10, 00:52:05,VALID,1009.63,VALID,0,VALID,97.053,VALID,0,VALID,24.0058,VALID,37,VALID,0.460938,
2009-09-10, 00:53:05,VALID,1009.66,VALID,0,VALID,97.0377,VALID,0.105969,VALID,24.0253,VALID,41,VALID,0.694922,
2009-09-10, 00:54:05,VALID,1009.65,VALID,0,VALID,97.0606,VALID,0.105969,VALID,23.9845,VALID,41,VALID,0.664063,
2009-09-10, 00:55:05,VALID,1009.66,VALID,0,VALID,97.0606,VALID,0.105969,VALID,23.965,VALID,41,VALID,0.259375,
2009-09-10, 00:56:05,VALID,1009.64,VALID,0,VALID,97.0606,VALID,0.105969,VALID,23.9863,VALID,41,VALID,0,
2009-09-10, 00:57:05,VALID,1009.61,VALID,0,VALID,97.0453,VALID,0.105969,VALID,23.965,VALID,41,VALID,0,
2009-09-10, 00:58:05,VALID,1009.61,VALID,0,VALID,97.053,VALID,0.105969,VALID,23.9455,VALID,41,VALID,0,
2009-09-10, 00:59:05,VALID,1009.58,VALID,0,VALID,97.0682,VALID,0.105969,VALID,23.926,VALID,41,VALID,0,
2009-09-10, 01:00:05,VALID,1009.54,VALID,0,VALID,97.0453,VALID,0.105969,VALID,23.9065,VALID,41,VALID,0,
2009-09-10, 01:01:05,VALID,1009.53,VALID,0,VALID,97.0758,VALID,0.105969,VALID,23.9065,VALID,41,VALID,0,
2009-09-10, 01:02:05,VALID,1009.52,VALID,0,VALID,97.0758,VALID,0.105969,VALID,23.9065,VALID,41,VALID,0,
2009-09-10, 01:03:05,VALID,1009.52,VALID,0,VALID,97.0682,VALID,0.105969,VALID,23.9278,VALID,41,VALID,0,
2009-09-10, 01:04:05,VALID,1009.49,VALID,0,VALID,97.1063,VALID,0.105969,VALID,23.9065,VALID,41,VALID,0,
2009-09-10, 01:05:05,VALID,1009.5,VALID,0,VALID,97.0987,VALID,0.105969,VALID,23.8871,VALID,52,VALID,0,
2009-09-10, 01:06:05,VALID,1009.48,VALID,0,VALID,97.0911,VALID,0.105969,VALID,23.9278,VALID,65,VALID,0,
2009-09-10, 01:07:05,VALID,1009.49,VALID,0,VALID,97.114,VALID,0,VALID,23.8889,VALID,65,VALID,0,
2009-09-10, 01:08:05,VALID,1009.48,VALID,0,VALID,97.1216,VALID,0,VALID,23.8694,VALID,96,VALID,0,
2009-09-10, 01:09:05,VALID,1009.46,VALID,0,VALID,97.0987,VALID,0,VALID,23.8676,VALID,96,VALID,0.406641,
2009-09-10, 01:10:05,VALID,1009.45,VALID,0,VALID,97.0987,VALID,0,VALID,23.8889,VALID,93,VALID,0.496875,
2009-09-10, 01:11:05,VALID,1009.43,VALID,0,VALID,97.0911,VALID,0,VALID,23.9297,VALID,93,VALID,0.517578,
2009-09-10, 01:12:05,VALID,1009.44,VALID,0,VALID,97.0987,VALID,0,VALID,23.9084,VALID,93,VALID,0.383984,
2009-09-10, 01:13:05,VALID,1009.42,VALID,0,VALID,97.0987,VALID,0,VALID,23.9084,VALID,93,VALID,0.132031,
2009-09-10, 01:14:05,VALID,1009.43,VALID,0,VALID,97.1216,VALID,0,VALID,23.9084,VALID,93,VALID,0,
2009-09-10, 01:15:05,VALID,1009.43,VALID,0,VALID,97.114,VALID,0,VALID,23.9084,VALID,93,VALID,0,
2009-09-10, 01:16:05,VALID,1009.4,VALID,0,VALID,97.1216,VALID,0,VALID,23.9084,VALID,93,VALID,0,
2009-09-10, 01:17:05,VALID,1009.39,VALID,0,VALID,97.0987,VALID,0,VALID,23.9278,VALID,93,VALID,0,
2009-09-10, 01:18:05,VALID,1009.38,VALID,0,VALID,97.1063,VALID,0,VALID,23.9278,VALID,93,VALID,0,
2009-09-10, 01:19:05,VALID,1009.36,VALID,0,VALID,97.1063,VALID,0,VALID,23.9473,VALID,93,VALID,0,
2009-09-10, 01:20:05,VALID,1009.37,VALID,0,VALID,97.1063,VALID,0,VALID,23.9686,VALID,93,VALID,0,
2009-09-10, 01:21:05,VALID,1009.34,VALID,0,VALID,97.1216,VALID,0,VALID,23.9491,VALID,93,VALID,0,
2009-09-10, 01:22:05,VALID,1009.32,VALID,0,VALID,97.1292,VALID,0,VALID,23.9473,VALID,93,VALID,0,
2009-09-10, 01:23:05,VALID,1009.35,VALID,0,VALID,97.1216,VALID,0.105969,VALID,23.926,VALID,93,VALID,0,
2009-09-10, 01:24:05,VALID,1009.34,VALID,0,VALID,97.1292,VALID,0,VALID,23.8871,VALID,93,VALID,0,
2009-09-10, 01:25:05,VALID,1009.31,VALID,0,VALID,97.1216,VALID,0.105969,VALID,23.9084,VALID,93,VALID,0,
2009-09-10, 01:26:05,VALID,1009.33,VALID,0,VALID,97.1216,VALID,0.105969,VALID,23.8676,VALID,93,VALID,0,
2009-09-10, 01:27:05,VALID,1009.34,VALID,0,VALID,97.114,VALID,0.105969,VALID,23.8481,VALID,93,VALID,0,
2009-09-10, 01:28:05,VALID,1009.35,VALID,0,VALID,97.1216,VALID,0.105969,VALID,23.8481,VALID,93,VALID,0,
2009-09-10, 01:29:05,VALID,1009.35,VALID,0,VALID,97.1063,VALID,0.105969,VALID,23.8481,VALID,93,VALID,0,
2009-09-10, 01:30:05,VALID,1009.33,VALID,0,VALID,97.0987,VALID,0.105969,VALID,23.8286,VALID,93,VALID,0,
2009-09-10, 01:31:05,VALID,1009.35,VALID,0,VALID,97.1216,VALID,0,VALID,23.8091,VALID,93,VALID,0,
2009-09-10, 01:32:05,VALID,1009.31,VALID,0,VALID,97.114,VALID,0,VALID,23.8286,VALID,93,VALID,0,
2009-09-10, 01:33:05,VALID,1009.32,VALID,0,VALID,97.1292,VALID,0.105969,VALID,23.8091,VALID,93,VALID,0,
2009-09-10, 01:34:05,VALID,1009.34,VALID,0,VALID,97.1216,VALID,0.105969,VALID,23.8286,VALID,93,VALID,0.172266,
2009-09-10, 01:35:05,VALID,1009.32,VALID,0,VALID,97.1216,VALID,0.105969,VALID,23.8091,VALID,93,VALID,0.107422,
2009-09-10, 01:36:05,VALID,1009.35,VALID,0,VALID,97.114,VALID,0.105969,VALID,23.8286,VALID,92,VALID,0.211328,
2009-09-10, 01:37:05,VALID,1009.34,VALID,0,VALID,97.1216,VALID,0,VALID,23.8286,VALID,21,VALID,0,
2009-09-10, 01:38:05,VALID,1009.36,VALID,0,VALID,97.1445,VALID,0.105969,VALID,23.8286,VALID,21,VALID,0,
2009-09-10, 01:39:05,VALID,1009.35,VALID,0,VALID,97.1292,VALID,0.105969,VALID,23.8286,VALID,21,VALID,0,
2009-09-10, 01:40:05,VALID,1009.33,VALID,0,VALID,97.1521,VALID,0.105969,VALID,23.8286,VALID,20,VALID,0,
2009-09-10, 01:41:05,VALID,1009.35,VALID,0,VALID,97.1597,VALID,0.105969,VALID,23.8286,VALID,20,VALID,0,
2009-09-10, 01:42:05,VALID,1009.37,VALID,0,VALID,97.1597,VALID,0.105969,VALID,23.8286,VALID,20,VALID,0,
2009-09-10, 01:43:05,VALID,1009.35,VALID,0,VALID,97.1521,VALID,0.105969,VALID,23.8286,VALID,20,VALID,0,
2009-09-10, 01:44:05,VALID,1009.36,VALID,0,VALID,97.1597,VALID,0,VALID,23.8286,VALID,20,VALID,0,
2009-09-10, 01:45:05,VALID,1009.36,VALID,0,VALID,97.1674,VALID,0,VALID,23.8499,VALID,20,VALID,0,
2009-09-10, 01:46:05,VALID,1009.35,VALID,0,VALID,97.1826,VALID,0.105969,VALID,23.8286,VALID,20,VALID,0,
2009-09-10, 01:47:05,VALID,1009.33,VALID,0,VALID,97.1521,VALID,0.105969,VALID,23.8499,VALID,20,VALID,0,
2009-09-10, 01:48:05,VALID,1009.35,VALID,0,VALID,97.1902,VALID,0.105969,VALID,23.8091,VALID,20,VALID,0,
2009-09-10, 01:49:05,VALID,1009.33,VALID,0,VALID,97.1902,VALID,0.105969,VALID,23.8304,VALID,20,VALID,0,
2009-09-10, 01:50:05,VALID,1009.34,VALID,0,VALID,97.175,VALID,0.105969,VALID,23.8091,VALID,20,VALID,0,
2009-09-10, 01:51:05,VALID,1009.32,VALID,0,VALID,97.1826,VALID,0.105969,VALID,23.7896,VALID,20,VALID,0,
2009-09-10, 01:52:05,VALID,1009.3,VALID,0,VALID,97.1826,VALID,0,VALID,23.7932,VALID,20,VALID,0,
2009-09-10, 01:53:05,VALID,1009.3,VALID,0,VALID,97.1826,VALID,0,VALID,23.7525,VALID,20,VALID,0,
2009-09-10, 01:54:05,VALID,1009.26,VALID,0,VALID,97.1979,VALID,0,VALID,23.7135,VALID,20,VALID,0,
2009-09-10, 01:55:05,VALID,1009.24,VALID,0,VALID,97.2055,VALID,0,VALID,23.694,VALID,20,VALID,0,
2009-09-10, 01:56:05,VALID,1009.25,VALID,0,VALID,97.1826,VALID,0,VALID,23.6745,VALID,20,VALID,0,
2009-09-10, 01:57:05,VALID,1009.24,VALID,0,VALID,97.2055,VALID,0,VALID,23.6356,VALID,20,VALID,0,
2009-09-10, 01:58:05,VALID,1009.2,VALID,0,VALID,97.2131,VALID,0,VALID,23.6161,VALID,20,VALID,0,
2009-09-10, 01:59:05,VALID,1009.19,VALID,0,VALID,97.1979,VALID,0,VALID,23.5966,VALID,20,VALID,0,
2009-09-10, 02:00:05,VALID,1009.17,VALID,0,VALID,97.1902,VALID,0,VALID,23.5984,VALID,20,VALID,0,
2009-09-10, 02:01:05,VALID,1009.18,VALID,0,VALID,97.1979,VALID,0,VALID,23.6161,VALID,20,VALID,0,
2009-09-10, 02:02:05,VALID,1009.18,VALID,0,VALID,97.1902,VALID,0,VALID,23.6356,VALID,20,VALID,0,
2009-09-10, 02:03:05,VALID,1009.17,VALID,0,VALID,97.1826,VALID,0,VALID,23.6356,VALID,20,VALID,0,
2009-09-10, 02:04:05,VALID,1009.14,VALID,0,VALID,97.1826,VALID,0,VALID,23.655,VALID,20,VALID,0,
2009-09-10, 02:05:05,VALID,1009.14,VALID,0,VALID,97.1979,VALID,0,VALID,23.655,VALID,20,VALID,0,
2009-09-10, 02:06:05,VALID,1009.18,VALID,0,VALID,97.1979,VALID,0,VALID,23.6745,VALID,20,VALID,0,
2009-09-10, 02:07:05,VALID,1009.13,VALID,0,VALID,97.2131,VALID,0,VALID,23.6745,VALID,20,VALID,0,
2009-09-10, 02:08:05,VALID,1009.15,VALID,0,VALID,97.2284,VALID,0,VALID,23.655,VALID,28,VALID,0,
2009-09-10, 02:09:05,VALID,1009.12,VALID,0,VALID,97.2284,VALID,0,VALID,23.6356,VALID,55,VALID,0,
2009-09-10, 02:10:05,VALID,1009.18,VALID,0,VALID,97.2284,VALID,0,VALID,23.6356,VALID,59,VALID,0,
2009-09-10, 02:11:05,VALID,1009.14,VALID,0,VALID,97.2207,VALID,0,VALID,23.6356,VALID,68,VALID,0,
2009-09-10, 02:12:05,VALID,1009.12,VALID,0,VALID,97.2207,VALID,0,VALID,23.6356,VALID,68,VALID,0,
2009-09-10, 02:13:05,VALID,1009.11,VALID,0,VALID,97.236,VALID,0,VALID,23.6161,VALID,68,VALID,0,
2009-09-10, 02:14:05,VALID,1009.13,VALID,0,VALID,97.2512,VALID,0,VALID,23.6373,VALID,68,VALID,0,
2009-09-10, 02:15:05,VALID,1009.1,VALID,0,VALID,97.2512,VALID,0,VALID,23.5966,VALID,68,VALID,0,
2009-09-10, 02:16:05,VALID,1009.09,VALID,0,VALID,97.2436,VALID,0,VALID,23.6161,VALID,68,VALID,0,
2009-09-10, 02:17:05,VALID,1009.08,VALID,0,VALID,97.236,VALID,0,VALID,23.6161,VALID,68,VALID,0,
2009-09-10, 02:18:05,VALID,1009.06,VALID,0,VALID,97.236,VALID,0,VALID,23.6373,VALID,68,VALID,0,
2009-09-10, 02:19:05,VALID,1009.08,VALID,0,VALID,97.2284,VALID,0,VALID,23.6356,VALID,68,VALID,0,
2009-09-10, 02:20:05,VALID,1009.06,VALID,0,VALID,97.2589,VALID,0,VALID,23.6356,VALID,68,VALID,0,
2009-09-10, 02:21:05,VALID,1009.06,VALID,0,VALID,97.2512,VALID,0,VALID,23.6356,VALID,68,VALID,0,
2009-09-10, 02:22:05,VALID,1009.08,VALID,0,VALID,97.2436,VALID,0.105969,VALID,23.6338,VALID,68,VALID,0,
2009-09-10, 02:23:05,VALID,1009.06,VALID,0,VALID,97.2436,VALID,0.105969,VALID,23.655,VALID,68,VALID,0,
2009-09-10, 02:24:05,VALID,1009.06,VALID,0,VALID,97.2284,VALID,0.105969,VALID,23.6532,VALID,68,VALID,0,
2009-09-10, 02:25:05,VALID,1009.08,VALID,0,VALID,97.236,VALID,0.105969,VALID,23.6745,VALID,64,VALID,0,
2009-09-10, 02:26:05,VALID,1009.07,VALID,0,VALID,97.2436,VALID,0.105969,VALID,23.6532,VALID,61,VALID,0,
2009-09-10, 02:27:05,VALID,1009.09,VALID,0,VALID,97.2436,VALID,0,VALID,23.6958,VALID,61,VALID,0,
2009-09-10, 02:28:05,VALID,1009.1,VALID,0,VALID,97.236,VALID,0,VALID,23.694,VALID,61,VALID,0,
2009-09-10, 02:29:05,VALID,1009.08,VALID,0,VALID,97.2284,VALID,0.105969,VALID,23.6727,VALID,61,VALID,0,
2009-09-10, 02:30:05,VALID,1009.09,VALID,0,VALID,97.2589,VALID,0.105969,VALID,23.694,VALID,61,VALID,0,
2009-09-10, 02:31:05,VALID,1009.1,VALID,0,VALID,97.2436,VALID,0,VALID,23.6727,VALID,61,VALID,0,
2009-09-10, 02:32:05,VALID,1009.08,VALID,0,VALID,97.236,VALID,0.105969,VALID,23.6727,VALID,61,VALID,0,
2009-09-10, 02:33:05,VALID,1009.06,VALID,0,VALID,97.236,VALID,0,VALID,23.694,VALID,61,VALID,0,
2009-09-10, 02:34:05,VALID,1009.08,VALID,0,VALID,97.2512,VALID,0,VALID,23.6745,VALID,61,VALID,0,
2009-09-10, 02:35:05,VALID,1009.1,VALID,0,VALID,97.2512,VALID,0.105969,VALID,23.655,VALID,61,VALID,0,
2009-09-10, 02:36:05,VALID,1009.09,VALID,0,VALID,97.2741,VALID,0.105969,VALID,23.6143,VALID,61,VALID,0,
2009-09-10, 02:37:05,VALID,1009.08,VALID,0,VALID,97.2817,VALID,0.105969,VALID,23.6143,VALID,61,VALID,0,
2009-09-10, 02:38:05,VALID,1009.08,VALID,0,VALID,97.2589,VALID,0.105969,VALID,23.5966,VALID,61,VALID,0,
2009-09-10, 02:39:05,VALID,1009.06,VALID,0,VALID,97.2589,VALID,0,VALID,23.5771,VALID,61,VALID,0,
2009-09-10, 02:40:05,VALID,1009.1,VALID,0,VALID,97.2436,VALID,0,VALID,23.5558,VALID,61,VALID,0,
2009-09-10, 02:41:05,VALID,1009.07,VALID,0,VALID,97.2817,VALID,0,VALID,23.5771,VALID,61,VALID,0,
2009-09-10, 02:42:05,VALID,1009.09,VALID,0,VALID,97.2741,VALID,0.105969,VALID,23.5558,VALID,61,VALID,0,
2009-09-10, 02:43:05,VALID,1009.1,VALID,0,VALID,97.2589,VALID,0,VALID,23.5558,VALID,61,VALID,0,
2009-09-10, 02:44:05,VALID,1009.1,VALID,0,VALID,97.2589,VALID,0,VALID,23.5771,VALID,61,VALID,0,
2009-09-10, 02:45:05,VALID,1009.14,VALID,0,VALID,97.2589,VALID,0,VALID,23.5966,VALID,61,VALID,0,
2009-09-10, 02:46:05,VALID,1009.17,VALID,0,VALID,97.2589,VALID,0,VALID,23.5966,VALID,61,VALID,0,
2009-09-10, 02:47:05,VALID,1009.18,VALID,0,VALID,97.2512,VALID,0.105969,VALID,23.5753,VALID,61,VALID,0,
2009-09-10, 02:48:05,VALID,1009.16,VALID,0,VALID,97.2665,VALID,0.105969,VALID,23.5966,VALID,61,VALID,0,
2009-09-10, 02:49:05,VALID,1009.18,VALID,0,VALID,97.2436,VALID,0,VALID,23.6161,VALID,61,VALID,0,
2009-09-10, 02:50:05,VALID,1009.19,VALID,0,VALID,97.2589,VALID,0.105969,VALID,23.6143,VALID,61,VALID,0,
2009-09-10, 02:51:05,VALID,1009.2,VALID,0,VALID,97.2512,VALID,0.105969,VALID,23.6356,VALID,61,VALID,0,
2009-09-10, 02:52:05,VALID,1009.22,VALID,0,VALID,97.2589,VALID,0.105969,VALID,23.6356,VALID,61,VALID,0,
2009-09-10, 02:53:05,VALID,1009.21,VALID,0,VALID,97.2436,VALID,0,VALID,23.6356,VALID,61,VALID,0,
2009-09-10, 02:54:05,VALID,1009.24,VALID,0,VALID,97.2589,VALID,0.105969,VALID,23.655,VALID,61,VALID,0,
2009-09-10, 02:55:05,VALID,1009.25,VALID,0,VALID,97.2436,VALID,0.105969,VALID,23.6143,VALID,61,VALID,0,
2009-09-10, 02:56:05,VALID,1009.23,VALID,0,VALID,97.2589,VALID,0.105969,VALID,23.6745,VALID,61,VALID,0,
2009-09-10, 02:57:05,VALID,1009.24,VALID,0,VALID,97.236,VALID,0.105969,VALID,23.6338,VALID,61,VALID,0,
2009-09-10, 02:58:05,VALID,1009.23,VALID,0,VALID,97.236,VALID,0,VALID,23.6532,VALID,61,VALID,0,
2009-09-10, 02:59:05,VALID,1009.24,VALID,0,VALID,97.236,VALID,0,VALID,23.6532,VALID,61,VALID,0,
2009-09-10, 03:00:05,VALID,1009.22,VALID,0,VALID,97.2512,VALID,0.105969,VALID,23.6532,VALID,61,VALID,0,
2009-09-10, 03:01:05,VALID,1009.19,VALID,0,VALID,97.2589,VALID,0.105969,VALID,23.694,VALID,61,VALID,0,
2009-09-10, 03:02:05,VALID,1009.21,VALID,0,VALID,97.2207,VALID,0,VALID,23.6727,VALID,61,VALID,0,
2009-09-10, 03:03:05,VALID,1009.24,VALID,0,VALID,97.236,VALID,0,VALID,23.694,VALID,61,VALID,0,
2009-09-10, 03:04:05,VALID,1009.23,VALID,0,VALID,97.2436,VALID,0.105969,VALID,23.6727,VALID,61,VALID,0,
2009-09-10, 03:05:05,VALID,1009.24,VALID,0,VALID,97.2436,VALID,0.105969,VALID,23.7135,VALID,61,VALID,0,
2009-09-10, 03:06:05,VALID,1009.25,VALID,0,VALID,97.2512,VALID,0.105969,VALID,23.7135,VALID,61,VALID,0,
2009-09-10, 03:07:05,VALID,1009.24,VALID,0,VALID,97.2284,VALID,0.105969,VALID,23.7117,VALID,61,VALID,0,
2009-09-10, 03:08:05,VALID,1009.29,VALID,0,VALID,97.2207,VALID,0.105969,VALID,23.7117,VALID,61,VALID,0,
2009-09-10, 03:09:05,VALID,1009.27,VALID,0,VALID,97.2284,VALID,0.105969,VALID,23.7312,VALID,61,VALID,0,
2009-09-10, 03:10:05,VALID,1009.3,VALID,0,VALID,97.2665,VALID,0.105969,VALID,23.7312,VALID,61,VALID,0,
2009-09-10, 03:11:05,VALID,1009.31,VALID,0,VALID,97.2436,VALID,0.105969,VALID,23.7525,VALID,61,VALID,0,
2009-09-10, 03:12:05,VALID,1009.3,VALID,0,VALID,97.2284,VALID,0.105969,VALID,23.7312,VALID,61,VALID,0,
2009-09-10, 03:13:05,VALID,1009.31,VALID,0,VALID,97.2589,VALID,0,VALID,23.7525,VALID,61,VALID,0,
2009-09-10, 03:14:05,VALID,1009.27,VALID,0,VALID,97.236,VALID,0.105969,VALID,23.7312,VALID,61,VALID,0,
2009-09-10, 03:15:05,VALID,1009.31,VALID,0,VALID,97.2589,VALID,0.105969,VALID,23.7117,VALID,77,VALID,0,
2009-09-10, 03:16:05,VALID,1009.32,VALID,0,VALID,97.236,VALID,0.105969,VALID,23.7117,VALID,77,VALID,0,
2009-09-10, 03:17:05,VALID,1009.28,VALID,0,VALID,97.2665,VALID,0.105969,VALID,23.7117,VALID,77,VALID,0,
2009-09-10, 03:18:05,VALID,1009.3,VALID,0,VALID,97.2589,VALID,0.105969,VALID,23.733,VALID,77,VALID,0.0316406,
2009-09-10, 03:19:05,VALID,1009.3,VALID,0,VALID,97.2512,VALID,0.105969,VALID,23.7117,VALID,64,VALID,0.482031,
2009-09-10, 03:20:04,VALID,1009.29,VALID,0,VALID,97.2284,VALID,0.105969,VALID,23.7117,VALID,63,VALID,0.309375,
2009-09-10, 03:21:04,VALID,1009.31,VALID,0,VALID,97.2512,VALID,0.105969,VALID,23.733,VALID,63,VALID,0.317187,
2009-09-10, 03:22:04,VALID,1009.32,VALID,0,VALID,97.2589,VALID,0,VALID,23.7135,VALID,63,VALID,0.150391,
2009-09-10, 03:23:04,VALID,1009.33,VALID,0,VALID,97.2589,VALID,0,VALID,23.7348,VALID,63,VALID,0.0972656,
2009-09-10, 03:24:04,VALID,1009.35,VALID,0,VALID,97.2817,VALID,0,VALID,23.694,VALID,63,VALID,0.200391,
2009-09-10, 03:25:04,VALID,1009.36,VALID,0,VALID,97.2894,VALID,0,VALID,23.6763,VALID,63,VALID,0,
2009-09-10, 03:26:04,VALID,1009.35,VALID,0,VALID,97.2894,VALID,0,VALID,23.6568,VALID,63,VALID,0,
2009-09-10, 03:27:04,VALID,1009.4,VALID,0,VALID,97.2665,VALID,0,VALID,23.6356,VALID,63,VALID,0,
2009-09-10, 03:28:04,VALID,1009.37,VALID,0,VALID,97.2665,VALID,0,VALID,23.655,VALID,63,VALID,0,
2009-09-10, 03:29:04,VALID,1009.38,VALID,0,VALID,97.2665,VALID,0,VALID,23.6356,VALID,63,VALID,0,
2009-09-10, 03:30:04,VALID,1009.36,VALID,0,VALID,97.2817,VALID,0,VALID,23.6356,VALID,63,VALID,0,
2009-09-10, 03:31:04,VALID,1009.3,VALID,0,VALID,97.2589,VALID,0,VALID,23.6763,VALID,63,VALID,0,
2009-09-10, 03:32:04,VALID,1009.26,VALID,0,VALID,97.2665,VALID,0,VALID,23.6763,VALID,63,VALID,0,
2009-09-10, 03:33:04,VALID,1009.25,VALID,0,VALID,97.2817,VALID,0,VALID,23.655,VALID,63,VALID,0,
2009-09-10, 03:34:04,VALID,1009.19,VALID,0,VALID,97.2512,VALID,0,VALID,23.6763,VALID,63,VALID,0,
2009-09-10, 03:35:04,VALID,1009.17,VALID,0,VALID,97.2741,VALID,0,VALID,23.655,VALID,63,VALID,0,
2009-09-10, 03:36:04,VALID,1009.13,VALID,0,VALID,97.2741,VALID,0,VALID,23.6568,VALID,63,VALID,0,
2009-09-10, 03:37:04,VALID,1009.12,VALID,0,VALID,97.2741,VALID,0.105969,VALID,23.6338,VALID,63,VALID,0,
2009-09-10, 03:38:04,VALID,1009.11,VALID,0,VALID,97.2665,VALID,0.105969,VALID,23.6143,VALID,63,VALID,0,
2009-09-10, 03:39:04,VALID,1009.1,VALID,0,VALID,97.2665,VALID,0,VALID,23.6143,VALID,63,VALID,0,
2009-09-10, 03:40:04,VALID,1009.11,VALID,0,VALID,97.2741,VALID,0,VALID,23.6356,VALID,63,VALID,0,
2009-09-10, 03:41:04,VALID,1009.12,VALID,0,VALID,97.2512,VALID,0,VALID,23.6356,VALID,63,VALID,0,
2009-09-10, 03:42:04,VALID,1009.15,VALID,0,VALID,97.2665,VALID,0.105969,VALID,23.6143,VALID,63,VALID,0,
2009-09-10, 03:43:04,VALID,1009.12,VALID,0,VALID,97.2817,VALID,0,VALID,23.6143,VALID,63,VALID,0,
2009-09-10, 03:44:04,VALID,1009.14,VALID,0,VALID,97.2894,VALID,0.105969,VALID,23.6143,VALID,63,VALID,0,
2009-09-10, 03:45:04,VALID,1009.16,VALID,0,VALID,97.2665,VALID,0,VALID,23.6161,VALID,63,VALID,0,
2009-09-10, 03:46:04,VALID,1009.17,VALID,0,VALID,97.2817,VALID,0.105969,VALID,23.5948,VALID,63,VALID,0,
2009-09-10, 03:47:04,VALID,1009.18,VALID,0,VALID,97.2894,VALID,0.105969,VALID,23.5753,VALID,63,VALID,0,
2009-09-10, 03:48:04,VALID,1009.23,VALID,0,VALID,97.2665,VALID,0.105969,VALID,23.5966,VALID,63,VALID,0,
2009-09-10, 03:49:04,VALID,1009.2,VALID,0,VALID,97.2817,VALID,0.105969,VALID,23.5966,VALID,63,VALID,0,